Weather History for Spencer, IA

Change the Weather History Date:

Saturday, March 8, 2014

  Actual Average Record
Temperature  
Mean Temperature 18 °F -  
Max Temperature 28 °F 37 °F 57 °F (2004)
Min Temperature 9 °F 18 °F -6 °F (2008)
Degree Days  
Heating Degree Days 46    
Moisture  
Dew Point 11 °F    
Average Humidity 78    
Maximum Humidity 91    
Minimum Humidity 66    
Precipitation  
Precipitation 0.00 in - - ()
Sea Level Pressure  
Sea Level Pressure 30.33 in    
Wind  
Wind Speed 11 mph (NW)    
Max Wind Speed 16 mph    
Max Gust Speed -    
Visibility 10 miles    
Events      
Averages and records for this station are not official NWS values.
T = Trace of Precipitation, MM = Missing Value Source: NWS Daily Summary

Daily Weather History Graph

Daily Weather History Graph

Search for Another Location

Airport:

Trip Planner

Search our weather history database for the weather conditions in past years. The results will help you decide how hot, cold, wet, or windy it might be!

Date:

Astronomy

Mar. 08, 2014 Rise Set
Actual Time 6:45 AM CST 6:18 PM CST
Civil Twilight 6:16 AM CST 6:47 PM CST
Nautical Twilight 5:43 AM CST 7:20 PM CST
Astronomical Twilight 5:10 AM CST 7:53 PM CST
Moon 11:16 AM CST (3/8) 1:27 AM CST (3/8)
Length of Visible Light 12h 30m
Length of Day
11h 33m
First Quarter, 52% of the Moon is Illuminated
Mar 8
First Quarter
Mar 16
Full
Mar 23
Last Quarter
Mar 30
New
Apr 7
First Quarter

Hourly Weather History & Observations

Time (CST) Temp. Windchill Dew Point Humidity Pressure Visibility Wind Dir Wind Speed Gust Speed Precip Events Conditions
12:53 AM 18.0 °F 3.1 °F 12.9 °F 81% 30.27 in 10.0 mi NNW 16.1 mph - N/A   Overcast
1:53 AM 16.0 °F 0.6 °F 10.9 °F 81% 30.29 in 10.0 mi NNW 16.1 mph - N/A   Overcast
2:53 AM 14.0 °F -1.4 °F 10.0 °F 84% 30.29 in 10.0 mi NNW 15.0 mph - N/A   Mostly Cloudy
3:42 AM 12.9 °F -2.2 °F 8.1 °F 81% 30.22 in 10.0 mi North 13.8 mph - N/A   Scattered Clouds
3:53 AM 12.9 °F -3.4 °F 8.1 °F 81% 30.30 in 10.0 mi North 16.1 mph - N/A   Partly Cloudy
4:53 AM 10.9 °F -4.7 °F 6.1 °F 81% 30.32 in 10.0 mi NNW 13.8 mph - N/A   Clear
5:53 AM 10.0 °F -5.2 °F 5.0 °F 80% 30.35 in 10.0 mi North 12.7 mph - N/A   Clear
6:53 AM 9.0 °F -5.9 °F 3.9 °F 80% 30.36 in 10.0 mi North 11.5 mph - N/A   Clear
7:53 AM 10.0 °F -5.2 °F 5.0 °F 80% 30.38 in 10.0 mi NNW 12.7 mph - N/A   Clear
8:53 AM 12.9 °F 1.6 °F 7.0 °F 77% 30.38 in 10.0 mi North 8.1 mph - N/A   Clear
9:53 AM 17.1 °F 6.6 °F 9.0 °F 71% 30.40 in 10.0 mi NNW 8.1 mph - N/A   Clear
10:53 AM 19.0 °F 10.0 °F 10.9 °F 71% 30.41 in 10.0 mi North 6.9 mph - N/A   Clear
11:53 AM 21.9 °F 12.5 °F 14.0 °F 72% 30.40 in 10.0 mi NNW 8.1 mph - N/A   Clear
12:53 PM 24.1 °F 18.2 °F 15.1 °F 69% 30.38 in 10.0 mi NNW 4.6 mph - N/A   Clear
1:53 PM 24.1 °F 16.0 °F 16.0 °F 71% 30.36 in 10.0 mi WNW 6.9 mph - N/A   Mostly Cloudy
2:53 PM 25.0 °F 18.1 °F 17.1 °F 72% 30.36 in 10.0 mi West 5.8 mph - N/A   Overcast
3:53 PM 28.0 °F 22.8 °F 18.0 °F 66% 30.35 in 10.0 mi NW 4.6 mph - N/A   Mostly Cloudy
4:53 PM 28.0 °F 21.7 °F 18.0 °F 66% 30.34 in 10.0 mi NNW 5.8 mph - N/A   Clear
5:53 PM 26.1 °F - 17.1 °F 69% 30.34 in 10.0 mi Calm Calm - N/A   Clear
6:53 PM 19.0 °F - 14.0 °F 81% 30.35 in 10.0 mi Calm Calm - N/A   Clear
7:53 PM 14.0 °F 5.1 °F 10.9 °F 88% 30.33 in 10.0 mi South 5.8 mph - N/A   Clear
8:53 PM 15.1 °F 6.4 °F 12.9 °F 91% 30.32 in 10.0 mi SSW 5.8 mph - N/A   Clear
9:53 PM 17.1 °F 5.8 °F 12.9 °F 84% 30.31 in 10.0 mi SSW 9.2 mph - N/A   Clear
10:53 PM 18.0 °F 6.9 °F 12.9 °F 81% 30.28 in 10.0 mi South 9.2 mph - N/A   Clear
11:53 PM 16.0 °F 5.3 °F 10.9 °F 81% 30.27 in 10.0 mi South 8.1 mph - N/A   Clear